Preview of NWS' New Version of Forecast
This preview is not operational and should not be used for support decisions.

Regional Weather Roundup (RWR)

Issued by Philadelphia/Mt Holly (PHI)

                            
000
ASUS41 KPHI 220912
RWRPHI

REGIONAL WEATHER ROUNDUP
NATIONAL WEATHER SERVICE MOUNT HOLLY NJ
500 AM EDT FRI MAR 22 2019

NOTE:  "FAIR" INDICATES FEW OR NO CLOUDS BELOW 12,000 FEET WITH NO
SIGNIFICANT WEATHER AND/OR OBSTRUCTIONS TO VISIBILITY.

 * = STATION DOES NOT REPORT PRECIPITATION (E.G. RAIN, SNOW, ETC.) 
        OR FOG.

NJZ015>026-221000-
SOUTHERN NEW JERSEY
  
CITY           SKY/WX    TMP DP  RH WIND       PRES   REMARKS
POMONA         LGT RAIN  46  46 100 NW9       29.27F                  
WILDWOOD*      LGT RAIN  45  44  97 NW16G25   29.32R FOG              
MILLVILLE      LGT RAIN  44  43  96 NW22G29   29.32R                  
WRIGHTSTOWN    LGT RAIN  44  44 100 NW13      29.27F FOG              
MOUNT HOLLY    LGT RAIN  45  42  89 NW12G17   29.32F FOG              
TRENTON        CLOUDY    44  43  96 NW10      29.32F                  

$$
NJZ001>014-221000-
NORTHERN NEW JERSEY
  
CITY           SKY/WX    TMP DP  RH WIND       PRES   REMARKS
SUSSEX         LGT RAIN  41  40  96 N6        29.39F                  
ANDOVER*         N/A     40  38  93 N6        29.38F                  
MORRISTOWN     DRIZZLE   43  43 100 CALM      29.33S                  
NEWARK         LGT RAIN  44  43  96 N16G23    29.30F FOG              
TETERBORO      LGT RAIN  44  42  93 NE8       29.31F FOG              
CALDWELL       LGT RAIN  42  42 100 N9G20     29.33  FOG              
SOMERVILLE     LGT RAIN  43  40  89 N13G24    29.32F                  
ALLAIRE*       LGT RAIN  44  43  96 NW10      29.26F FOG              
TOMS RIVER*    CLOUDY    45  45 100 NW7       29.27F                  

$$
PAZ043-044-047-054-055-060>062-066>071-221000-
EASTERN PENNSYLVANIA
  
CITY           SKY/WX    TMP DP  RH WIND       PRES   REMARKS
PHILADELPHIA   RAIN      43  40  89 NW28G44   29.35F                  
NORTH PHILA    LGT RAIN  45  40  82 NW17G25   29.36S                  
BLUE BELL*     CLOUDY    39  39 100 NW9G21    29.39S WCI  33          
DOYLESTOWN     LGT RAIN  41  39  93 NW9G21    29.35F                  
QUAKERTOWN*    CLOUDY    39  37  93 NW14G22   29.39F FOG     WCI  31  
PERKASIE*      LGT RAIN  37  37 100 NW15G29   29.38F WCI  28          
POTTSTOWN      RAIN      39  38  96 NW15G23   29.42F FOG     WCI  31  
LANCASTER      LGT RAIN  41  37  86 NW18      29.47S                  
COATESVILLE    LGT RAIN  39  39 100 NW16      29.43S WCI  30          
READING        RAIN      41  40  96 NW13      29.45S                  
ALLENTOWN      LGT RAIN  41  34  76 NW18G28   29.41F                  
MOUNT POCONO   LGT SNOW  33  33 100 NW18G31   29.40F FOG     WCI  22  
HAZLETON       LGT SNOW  34  32  93 NW9       29.48F WCI  26          
LEHIGHTON      HVY RAIN  39  36  87 NW7       29.45F WCI  34          
WILKES BARRE   LGT RAIN  37  34  89 N5        29.48F WCI  33          

$$
DEZALL-MDZ008-012-015-019-020-221000-
DELAWARE AND EASTERN MARYLAND
  
CITY           SKY/WX    TMP DP  RH WIND       PRES   REMARKS
WILMINGTON     LGT RAIN  42  39  89 NW26G33   29.39S                  
DOVER          LGT RAIN  43  43  99 W28G36    29.37R                  
GEORGETOWN     LGT RAIN  47  43  86 NW13G31   29.40R FOG              
EASTON         RAIN      44  41  90 NW20G33   29.51R                  
PATUXENT       CLOUDY    46  41  82 NW24G32   29.53R                  
OCEAN CITY     LGT RAIN  45  42  89 NW17G31   29.39R                  
WALLOPS ISLAND LGT RAIN  45  42  89 W24G37    29.46R                  
CAMBRIDGE      CLOUDY    43  41  93 NW18G32   29.49R FOG              
SALISBURY      LGT RAIN  44  42  93 W18G32    29.44R                  

$$
PAZ001-021-NYZ056-072-MDZ011-DCZ001-221000-
OTHER NEARBY LOCATIONS
  
CITY           SKY/WX    TMP DP  RH WIND       PRES   REMARKS
HARRISBURG     LGT RAIN  42  38  85 NW18G25   29.51F                  
STATE COLLEGE  CLOUDY    39  33  77 NW15G24   29.59F WCI  31          
WILLIAMSPORT   CLOUDY    39  36  89 W12       29.55F WCI  32          
BINGHAMTON     LGT SNOW  32  31  96 N10       29.49F VSB 3/4 WCI  24  
NEW YORK CITY  RAIN      43  41  93 NE13G21   29.32  FOG              
BALTIMORE      DRIZZLE   43  39  86 NW18G25   29.50R                  
WASHINGTON DC  LGT RAIN  45  38  76 NW17G28   29.57R                  

$$